14.2.2021 SWM Marttila Sprint

Tulokset  Lähtöluettelo  Keskeyttäneet (13)  Rangaistukset (0)  Tilastot Vanha tulosnäyttö  


 << EK1 Maali> Yleiskilpailun tulokset
SWM Marttila Sprint
14.2.2021
SS 2, LUOKKATULOS
2WD
SouthWest Motorsport ry
KIERROS 2
 
Luokka 1 , Crosscart , Lähti:4
SS2, 4.25km, nopein: 70.7km/h
SijNumOhjaajaTulosEro
11Mika Kauhanen3:36,4
23Harri Laaksonen3:37,81,4
32Marko Kärnä3:38,52,1
44Lauri Halonen3:41,75,3
Tulos 2 ek:n jälkeen
SijNumOhjaajaTulosEro
12Marko Kärnä7:07,2
21Mika Kauhanen7:13,2 6,0
33Harri Laaksonen7:15,0 7,8
44Lauri Halonen7:23,2 16,0

 
Luokka 2 , Classic alle 1350cc , Lähti:1
SS2, 4.25km, nopein: 62.1km/h
SijNumOhjaajaTulosEro
15Janne Turtia4:06,4
Tulos 2 ek:n jälkeen
SijNumOhjaajaTulosEro
15Janne Turtia8:08,1

 
Luokka 3 , Classic alle 1650cc , Lähti:4
SS2, 4.25km, nopein: 64km/h
SijNumOhjaajaTulosEro
18Markku Taipale3:58,9
26Janne Pensikkala4:02,13,2
39Esa Sarkimo4:16,817,9
47Risto Sirro4:49,951,0
Tulos 2 ek:n jälkeen
SijNumOhjaajaTulosEro
18Markku Taipale7:51,2
26Janne Pensikkala7:58,2 7,0
39Esa Sarkimo8:27,7 36,5
47Risto Sirro9:48,0 1:56,8

 
Luokka 4 , Classic alle 2050cc , Lähti:4
SS2, 4.25km, nopein: 60.9km/h
SijNumOhjaajaTulosEro
112Petri Söyring4:11,2
211Ismo Nikkilä4:12,21,0
313Timo Savenius4:43,632,4
Tulos 2 ek:n jälkeen
SijNumOhjaajaTulosEro
111Ismo Nikkilä8:23,6
212Petri Söyring8:27,0 3,4
313Timo Savenius9:29,3 1:05,7
-10Michael FlemmingTulos puuttuu

 
Luokka 5 , Classic yli 2050cc , Lähti:3
SS2, 4.25km, nopein: 61.8km/h
SijNumOhjaajaTulosEro
115Jere Piekkala4:07,6
214Jyrki Sulka4:10,93,3
316Ari Salminen4:29,722,1
Tulos 2 ek:n jälkeen
SijNumOhjaajaTulosEro
115Jere Piekkala8:17,2
214Jyrki Sulka8:18,6 1,4
316Ari Salminen8:57,0 39,8

 
Luokka 6 , Naiset , Lähti:1
SS2, 4.25km, nopein: 58.4km/h
SijNumOhjaajaTulosEro
117Annukka Halme4:22,1
Tulos 2 ek:n jälkeen
SijNumOhjaajaTulosEro
117Annukka Halme8:49,5

 
Luokka 7 , Nuoret alle 1650/H2050 , Lähti:6
SS2, 4.25km, nopein: 64km/h
SijNumOhjaajaTulosEro
118Raoul Dahlqvist3:59,2
222Viljami Salminen4:00,41,2
323Tino Nikkanen4:01,82,6
420Esko Kytömäki4:07,68,4
Tulos 2 ek:n jälkeen
SijNumOhjaajaTulosEro
118Raoul Dahlqvist8:01,2
223Tino Nikkanen8:02,3 1,1
320Esko Kytömäki8:17,6 16,4
422Viljami Salminen8:18,7 17,5
-19Kimi RajalaTulos puuttuu
-21Verneri AallontieTulos puuttuu

 
Luokka 8 , V1600 , Lähti:11
SS2, 4.25km, nopein: 63.5km/h
SijNumOhjaajaTulosEro
136olli söderström4:00,8
229Miska Höglund4:03,83,0
332Ilkka Lindstedt4:07,66,8
426Tuomo Vanhala4:08,37,5
527Joni Tenhunen4:10,910,1
628jukka koskinen4:11,010,2
734Juho Lehtinen4:12,411,6
824Mikko Rajala4:13,112,3
935Matias Laine4:14,213,4
1031Iira Lindstedt4:18,317,5
Tulos 2 ek:n jälkeen
SijNumOhjaajaTulosEro
136olli söderström8:04,4
229Miska Höglund8:04,8 0,4
332Ilkka Lindstedt8:14,6 10,2
426Tuomo Vanhala8:16,4 12,0
527Joni Tenhunen8:20,2 15,8
628jukka koskinen8:21,8 17,4
734Juho Lehtinen8:26,0 21,6
824Mikko Rajala8:33,6 29,2
931Iira Lindstedt8:34,7 30,3
1035Matias Laine8:35,6 31,2
-30pertti vainioTulos puuttuu

 
Luokka 9 , H2050 , Lähti:0
 
Luokka 10 , Seniorit 2wd , Lähti:16
SS2, 4.25km, nopein: 67.4km/h
SijNumOhjaajaTulosEro
144Mika Rantasalo3:47,0
243Jukka Lifländer3:48,21,2
345Hannu Ruohorinne3:48,81,8
448TARMO OLLILA3:50,63,6
542leif tuomela3:52,05,0
646Kimmo Särkikoski3:57,210,2
737Jyrki Vepsä3:57,410,4
851Timo Paananen3:57,410,4
938Esa Rantasalo4:02,115,1
1039Stig Österholm4:04,817,8
1149Rauno Kotanen4:14,227,2
1252Esa Puhakka16:02,512:15,5
Tulos 2 ek:n jälkeen
SijNumOhjaajaTulosEro
143Jukka Lifländer7:29,9
244Mika Rantasalo7:31,7 1,8
345Hannu Ruohorinne7:36,7 6,8
448TARMO OLLILA7:39,5 9,6
542leif tuomela7:46,3 16,4
646Kimmo Särkikoski7:49,9 20,0
751Timo Paananen7:51,3 21,4
838Esa Rantasalo8:00,4 30,5
937Jyrki Vepsä8:03,2 33,3
1039Stig Österholm8:14,5 44,6
1149Rauno Kotanen14:14,2 6:44,3
1252Esa Puhakka20:04,9 12:35,0

 
Luokka 12 , HR alle 1650cc , Lähti:8
SS2, 4.25km, nopein: 67.7km/h
SijNumOhjaajaTulosEro
164Toni Tuominen3:46,1
265Benjamin Korhola3:49,83,7
368Sami Vepsä3:49,93,8
462Jesse Niini4:00,214,1
566Jussi Tuomela4:14,528,4
663Teemu Vuorinen4:16,930,8
767Jere Vanha-Jaakkola5:01,01:14,9
Tulos 2 ek:n jälkeen
SijNumOhjaajaTulosEro
164Toni Tuominen7:34,1
265Benjamin Korhola7:38,3 4,2
368Sami Vepsä7:41,9 7,8
462Jesse Niini7:59,0 24,9
566Jussi Tuomela8:30,2 56,1
663Teemu Vuorinen8:33,7 59,6
767Jere Vanha-Jaakkola9:02,7 1:28,6
-61Pasi NiiniTulos puuttuu

 
Luokka 13 , HR alle 2250cc , Lähti:17
SS2, 4.25km, nopein: 66.9km/h
SijNumOhjaajaTulosEro
175Iiro Litjo3:48,6
281Tommi Huhtala3:52,03,4
384Edgar Wirtanen3:54,55,9
469Niko Konkola3:56,57,9
577Kim Allamo3:59,911,3
683Janne Wikström4:00,812,2
778Jyrki Sorjasaari4:01,112,5
879Sami Sabell4:02,313,7
974Lauri Laine4:07,118,5
1080Jouni Takaneva4:11,623,0
1176Arto Pietilä4:12,924,3
1271Mikko Kujansuu4:18,029,4
1373Samppa Kalenius4:18,630,0
1472Ari Koskinen4:23,434,8
1570Sami Saarinen4:29,340,7
Tulos 2 ek:n jälkeen
SijNumOhjaajaTulosEro
181Tommi Huhtala7:42,6
275Iiro Litjo7:43,3 0,7
384Edgar Wirtanen7:44,7 2,1
469Niko Konkola7:55,4 12,8
577Kim Allamo8:00,5 17,9
683Janne Wikström8:02,5 19,9
778Jyrki Sorjasaari8:05,1 22,5
879Sami Sabell8:07,4 24,8
974Lauri Laine8:12,8 30,2
1080Jouni Takaneva8:31,6 49,0
1171Mikko Kujansuu8:31,7 49,1
1273Samppa Kalenius8:38,3 55,7
1372Ari Koskinen8:41,0 58,4
1470Sami Saarinen8:55,5 1:12,9
1576Arto Pietilä14:12,9 6:30,3
-85Mikko NummistoTulos puuttuu
-53Oskari NummistoTulos puuttuu

 
Luokka 14 , HR yli 2250cc , Lähti:11
SS2, 4.25km, nopein: 63.9km/h
SijNumOhjaajaTulosEro
186Ari Gylden3:59,3
291Timo Koivunen4:02,93,6
394Antti Sinisalo4:02,93,6
489Janne Jokinen4:04,95,6
587jouni alenius4:06,97,6
693Petri Reunanen4:08,08,7
790Riku Lehto4:09,19,8
854seppo penkkala4:20,521,2
9106jukka laine4:28,629,3
1092Juho Hakala4:35,135,8
Tulos 2 ek:n jälkeen
SijNumOhjaajaTulosEro
186Ari Gylden7:59,8
291Timo Koivunen8:03,5 3,7
394Antti Sinisalo8:07,7 7,9
489Janne Jokinen8:07,8 8,0
587jouni alenius8:14,7 14,9
690Riku Lehto8:17,6 17,8
793Petri Reunanen8:20,3 20,5
854seppo penkkala8:27,0 27,2
9106jukka laine8:41,7 41,9
1092Juho Hakala9:01,1 1:01,3
-95Jari ViitasaariTulos puuttuu

 
Luokka 15 , Proto / Sprint alle 1650cc , Lähti:6
SS2, 4.25km, nopein: 68.8km/h
SijNumOhjaajaTulosEro
196Matias Peippo3:42,5
2101Juha Mäkelä3:43,30,8
399Ville Keljo3:54,612,1
4100Jorma Keljo3:56,814,3
598Kimmo Peippo3:58,516,0
697Joonas Kalliomäki4:02,620,1
Tulos 2 ek:n jälkeen
SijNumOhjaajaTulosEro
196Matias Peippo7:20,8
2101Juha Mäkelä7:23,7 2,9
399Ville Keljo7:45,6 24,8
498Kimmo Peippo7:51,3 30,5
597Joonas Kalliomäki7:59,2 38,4
6100Jorma Keljo8:06,2 45,4

 
Luokka 16 , Proto / Sprint alle 2250cc , Lähti:4
SS2, 4.25km, nopein: 67km/h
SijNumOhjaajaTulosEro
1102Jarno Vanhatalo3:48,5
2104Joni Halme4:00,712,2
3105Teemu Koivunen4:06,918,4
Tulos 2 ek:n jälkeen
SijNumOhjaajaTulosEro
1102Jarno Vanhatalo7:36,5
2104Joni Halme7:45,3 8,8
3105Teemu Koivunen7:59,9 23,4
-103Sauli VirtanenTulos puuttuu

 
Luokka 17 , Proto / Sprint yli 2250cc , Lähti:2
SS2, 4.25km, nopein: 61.7km/h
SijNumOhjaajaTulosEro
1107Rami Koivunen4:08,0
2109Aki Suominen4:11,23,2
Tulos 2 ek:n jälkeen
SijNumOhjaajaTulosEro
1107Rami Koivunen8:16,6
2109Aki Suominen8:24,4 7,8